Location: Lombard
(41.8800°N, 88.0080°W)
Time: 00:38:44
(UTC-05:00)

A-11 Canister half - Pass Details

Date: 07 February 2023
Orbit: 1512 x 1687 km, 47.2° (Epoch: 20 March)

Event Time Altitude Azimuth Distance (km) Brightness Sun altitude
Rises 12:51:23 0° 278° (W) 4,818 11.7 32.0°
Reaches altitude 10° 12:54:36 10° 282° (WNW) 3,808 11.2 31.8°
Maximum altitude 13:04:10 64° 4° (N) 1,695 9.4 31.4°
Drops below altitude 10° 13:13:25 10° 85° (E) 3,689 10.9 30.8°
Sets 13:16:29 0° 89° (E) 4,661 11.3 30.7°
